Terug naar catalogus

STARLINK-11565

ActiefCommunicatieVLEO
NORAD 62912·PAYLOAD·🇺🇸 United States

Gelanceerd Feb 8, 2025 vanaf Cape Canaveral Space Force Station

Loading…

Volgende Passages (komende 24 uur)

TLE

VersSource: CelesTrak SupGP

Epoch: Sep 14, 2026, 21:42 UTC

1 62912C 25027F   26257.90465278 -.00005245  00000+0 -40752-4 0  2575
2 62912  43.0006 286.7211 0001617 253.0828 169.4937 15.70833591    17

Volg STARLINK-11565 in realtime met AllMySat

Download on the App Store